Pilot Point AP, Pilot Point,, AK

4:45 AM AKDT on September 22, 2017 (GMT -0800)
Pilot Point AP, Pilot Point,

Weather History for PAPN - March, 2014

Change the Weather History Date:

Sunday, March 23, 2014

  Actual Average (PAPH) Record (PAPH)
Temperature  
Mean Temperature 38 °F -  
Max Temperature 44 °F 29 °F 48 °F (2015)
Min Temperature 31 °F 19 °F -4 °F (2007)
Degree Days  
Heating Degree Days 27    
Moisture  
Dew Point 27 °F    
Average Humidity 66    
Maximum Humidity 82    
Minimum Humidity 46    
Precipitation  
Precipitation 0.00 in - - ()
Sea Level Pressure  
Sea Level Pressure 30.21 in    
Wind  
Wind Speed 17 mph (ESE)    
Max Wind Speed 34 mph    
Max Gust Speed 44 mph    
Visibility 10 miles    
Events      
Averages and records for this station are not official NWS values.
T = Trace of Precipitation, MM = Missing Value Source: NWS Daily Summary

Daily Weather History Graph

Daily Weather History Graph

Search for Another Location

Airport or City:

Trip Planner

Search our weather history database for the weather conditions in past years. The results will help you decide how hot, cold, wet, or windy it might be!

Date:

Astronomy

Mar. 23, 2014 Rise Set
Actual Time 8:23 AM AKDT 8:51 PM AKDT
Civil Twilight 7:44 AM AKDT 9:30 PM AKDT
Nautical Twilight 6:57 AM AKDT 10:17 PM AKDT
Astronomical Twilight 6:07 AM AKDT 11:08 PM AKDT
Moon 4:19 AM AKDT (3/23) 12:15 PM AKDT (3/23)
Length of Visible Light 13h 46m
Length of Day
12h 28m
Waning Gibbous, 53% of the Moon is Illuminated
Mar 23
Waning Gibbous
Mar 23
Last Quarter
Mar 30
New
Apr 7
First Quarter
Apr 14
Full

Hourly Weather History & Observations

Time (AKDT) Temp. Windchill Dew Point Humidity Pressure Visibility Wind Dir Wind Speed Gust Speed Precip Events Conditions
12:56 AM 34.0 °F 25.0 °F 28.0 °F 79% 30.25 in 10.0 mi East 12.7 mph - N/A   Clear
1:56 AM 34.9 °F 24.6 °F 28.0 °F 76% 30.24 in 10.0 mi East 17.3 mph - N/A   Clear
2:56 AM 34.9 °F 23.9 °F 28.0 °F 76% 30.23 in 10.0 mi East 19.6 mph 25.3 mph N/A   Clear
3:56 AM 35.6 °F 24.8 °F 26.6 °F 70% 30.23 in 10.0 mi East 19.6 mph - N/A   Partly Cloudy
4:56 AM 34.9 °F 24.6 °F 27.1 °F 73% 30.23 in 10.0 mi East 17.3 mph - N/A   Clear
5:56 AM 34.9 °F 26.2 °F 27.1 °F 73% 30.24 in 10.0 mi East 12.7 mph - N/A   Clear
6:56 AM 35.6 °F 27.1 °F 26.6 °F 70% 30.23 in 10.0 mi East 12.7 mph - N/A   Partly Cloudy
7:56 AM 36.0 °F 26.3 °F 27.1 °F 70% 30.22 in 10.0 mi East 16.1 mph - N/A   Mostly Cloudy
8:56 AM 34.0 °F 26.0 °F 28.0 °F 79% 30.21 in 10.0 mi ENE 10.4 mph - N/A   Partly Cloudy
9:56 AM 37.4 °F 28.9 °F 28.4 °F 70% 30.21 in 10.0 mi East 13.8 mph - N/A   Scattered Clouds
10:56 AM 38.8 °F 30.8 °F 28.0 °F 65% 30.22 in 10.0 mi East 13.8 mph 19.6 mph N/A   Scattered Clouds
11:56 AM 41.0 °F 32.2 °F 28.0 °F 60% 30.22 in 10.0 mi ESE 18.4 mph - N/A   Clear
12:56 PM 42.8 °F 33.5 °F 26.6 °F 53% 30.22 in 10.0 mi ESE 23.0 mph 32.2 mph N/A   Partly Cloudy
1:56 PM 43.9 °F 34.1 °F 27.1 °F 52% 30.21 in 10.0 mi ESE 27.6 mph 36.8 mph N/A   Clear
2:56 PM 43.9 °F 33.1 °F 27.1 °F 52% 30.19 in 10.0 mi ESE 34.5 mph 43.7 mph N/A   Clear
3:56 PM 44.6 °F 35.3 °F 24.8 °F 46% 30.20 in 10.0 mi ESE 26.5 mph 34.5 mph N/A   Clear
4:56 PM 43.0 °F 32.5 °F 25.2 °F 49% 30.19 in 10.0 mi ESE 29.9 mph 35.7 mph N/A   Clear
5:56 PM 41.9 °F 31.9 °F 26.1 °F 53% 30.19 in 10.0 mi ESE 25.3 mph 34.5 mph N/A   Clear
6:56 PM 41.0 °F 30.9 °F 26.6 °F 57% 30.18 in 10.0 mi ESE 24.2 mph 28.8 mph N/A   Clear
7:56 PM 37.9 °F 28.9 °F 27.1 °F 65% 30.19 in 10.0 mi ESE 16.1 mph - N/A   Clear
8:56 PM 34.9 °F 25.7 °F 26.1 °F 70% 30.20 in 10.0 mi ESE 13.8 mph - N/A   Clear
9:56 PM 32.9 °F 24.1 °F 26.1 °F 76% 30.20 in 10.0 mi East 11.5 mph - N/A   Clear
10:56 PM 32.0 °F 23.0 °F 26.1 °F 79% 30.21 in 10.0 mi ESE 11.5 mph - N/A   Clear
11:56 PM 31.1 °F 23.7 °F 26.1 °F 82% 30.22 in 10.0 mi ESE 8.1 mph - N/A   Clear